Snowfall_Accumulation
0.2 0.1 0.1 0.1 0.1 0.2 0.3 0.4 0.7 0.8 0.4 0.2 0.1 0.1 0.0 0.0 0.1 0.2 0.0 0.0 0.1 0.0 0.0 0.0 0.0 0.0 0.0 0.0 0.0 0.0 0.0 0.0 0.0 0.0 0.0 0.0 0.0 0.0
0.2 0.2 0.1 0.1 0.1 0.2 0.2 0.3 0.4 0.7 0.6 0.2 0.0 0.0 0.0 0.0 0.0 0.1 0.2 0.0 0.1 0.0 0.0 0.0 0.0 0.0 0.0 0.0 0.0 0.0 0.0 0.0 0.0 0.0 0.0 0.0 0.0 0.0
0.4 0.4 0.3 0.2 0.2 0.2 0.3 0.3 0.4 0.5 0.7 0.3 0.0 0.0 0.0 0.0 0.0 0.1 0.2 0.1 0.1 0.1 0.1 0.0 0.0 0.1 0.1 0.1 0.1 0.0 0.0 0.0 0.0 0.0 0.0 0.0 0.0 0.0
0.4 0.4 0.4 0.4 0.3 0.2 0.3 0.4 0.3 0.4 0.6 0.5 0.3 0.1 0.1 0.1 0.1 0.1 0.1 0.2 0.0 0.0 0.1 0.1 0.1 0.2 0.2 0.2 0.1 0.1 0.1 0.1 0.1 0.1 0.0 0.0 0.0 0.0
0.5 0.5 0.5 0.6 0.6 0.3 0.4 0.4 0.4 0.3 0.5 0.7 0.5 0.3 0.3 0.2 0.3 0.2 0.1 0.1 0.2 0.0 0.0 0.0 0.1 0.3 0.4 0.4 0.4 0.5 0.4 0.2 0.1 0.1 0.1 0.1 0.1 0.0
0.5 0.5 0.6 0.6 0.6 0.8 0.9 0.9 0.7 1.0 1.2 1.5 1.4 1.2 1.2 1.0 0.7 0.7 0.7 0.5 0.5 0.3 0.4 0.1 0.2 0.1 0.2 0.2 0.3 0.3 0.3 0.3 0.3 0.3 0.3 0.3 0.3 0.3
0.7 0.6 0.6 0.7 0.8 0.9 1.3 1.9 2.1 2.2 2.5 2.9 2.6 2.1 1.8 1.5 1.3 1.2 1.2 1.0 0.8 0.5 0.9 0.5 0.5 0.2 0.1 0.0 0.1 0.1 0.3 0.4 0.5 0.6 0.7 0.7 0.6 0.5
1.1 1.1 1.2 1.4 1.0 1.2 1.1 1.3 2.4 3.9 4.3 4.1 3.4 2.5 1.7 1.3 1.1 1.3 1.6 2.1 1.8 1.0 1.2 1.4 1.1 1.1 0.4 0.2 0.2 0.2 0.4 0.7 0.8 0.7 0.8 0.7 0.7 0.6
2.0 1.8 1.8 1.7 1.7 1.4 1.4 1.5 1.8 1.9 2.3 2.6 2.6 2.0 1.6 1.4 1.9 2.5 2.2 2.6 2.2 1.3 1.4 2.1 1.7 1.6 1.2 0.3 0.0 0.1 0.3 0.5 0.7 0.9 0.8 0.8 1.0 0.6
2.2 1.9 1.6 1.2 1.1 1.2 1.8 2.1 1.4 0.9 0.9 0.9 1.1 1.2 1.2 1.2 2.2 3.2 3.0 2.7 1.6 1.0 1.0 2.3 1.8 1.9 1.4 1.0 0.2 0.3 0.3 0.4 0.7 0.7 0.9 1.0 1.2 1.2
1.6 1.5 1.2 1.1 0.9 1.7 2.5 2.3 1.3 0.9 0.5 0.7 1.0 1.1 1.3 1.5 1.8 3.4 4.5 5.2 3.7 1.4 1.0 1.9 1.9 1.8 1.2 1.0 0.9 0.3 0.3 0.3 0.5 0.6 0.6 0.7 0.9 1.0
1.4 0.9 0.8 1.1 1.5 2.2 2.7 3.0 2.6 1.4 1.0 0.6 0.6 0.8 1.0 1.0 0.9 2.3 4.3 7.1 6.0 3.7 1.3 1.8 2.3 3.0 3.7 1.3 1.0 0.8 0.8 0.2 0.3 0.4 0.5 0.6 0.8 1.1
2.3 1.6 1.1 1.4 2.1 2.5 2.8 2.9 3.0 2.5 2.3 2.1 1.5 1.2 1.0 1.3 1.1 1.2 2.0 5.8 8.4 6.2 1.9 4.0 5.8 4.2 6.2 3.6 1.0 0.8 0.7 0.7 0.4 0.4 0.5 0.6 0.9 1.7
3.4 2.5 1.9 2.3 2.8 2.6 2.7 2.5 2.7 2.8 2.7 2.9 2.8 2.1 1.8 1.9 1.8 1.5 1.6 1.9 2.9 3.8 2.2 4.9 9.9 7.5 9.0 6.9 3.3 1.1 1.0 0.7 1.0 1.0 1.1 1.4 1.7 2.2
3.3 3.0 3.3 3.5 3.1 2.8 2.4 2.5 2.8 2.9 3.3 3.7 3.1 2.7 1.8 1.6 1.5 1.9 2.1 1.8 1.6 1.4 1.6 2.2 5.7 6.9 9.5 9.7 5.6 2.4 1.7 1.0 0.9 1.6 1.9 2.2 2.6 3.0
2.9 3.3 3.0 2.6 2.2 2.4 2.7 2.9 3.0 3.1 3.7 3.8 3.3 3.1 2.8 2.7 3.5 3.4 4.5 4.3 4.8 3.8 2.2 1.6 2.7 6.0 9.5 7.0 6.8 5.1 3.3 3.3 1.8 2.2 2.9 2.3 2.4 2.5
5.1 4.6 4.1 3.4 3.4 2.8 3.0 3.0 3.2 3.8 4.0 4.0 3.8 4.4 4.3 4.3 4.3 3.9 4.9 5.8 6.9 5.4 4.1 3.1 2.9 3.9 5.7 6.7 7.5 4.4 3.3 3.6 3.3 3.9 4.6 4.2 2.5 2.5
5.3 5.8 5.1 4.3 4.4 4.3 4.7 4.4 4.4 4.8 4.6 5.3 5.3 5.7 5.8 6.2 6.0 5.2 5.8 6.7 7.0 5.6 4.9 4.4 5.4 6.6 6.1 5.6 4.6 4.7 4.7 4.9 4.6 4.0 5.1 7.5 5.1 2.6
4.5 4.7 4.5 4.7 5.1 4.7 4.9 5.6 5.7 5.6 5.6 6.5 6.6 7.0 7.7 7.8 7.7 7.5 7.2 7.5 7.0 6.0 5.5 5.4 7.3 12.2 13.7 8.2 4.9 3.8 6.4 6.9 5.8 5.8 6.4 8.5 9.0 5.5
3.9 4.3 4.7 4.9 5.5 6.0 6.1 6.1 6.2 5.9 6.2 6.9 7.2 7.4 8.2 9.2 9.2 8.4 8.1 8.6 8.3 7.7 6.8 5.5 6.8 10.8 15.7 12.8 9.2 5.1 3.7 6.9 10.0 10.3 8.1 6.5 6.4 3.1
4.1 4.5 5.0 5.7 5.9 6.4 7.2 7.3 7.7 7.5 7.4 8.1 8.5 8.6 9.3 10.5 10.4 9.3 9.2 9.0 9.3 9.5 8.9 6.5 5.0 6.3 10.6 15.1 13.2 7.2 5.3 4.6 6.5 11.9 13.1 12.3 9.9 6.7
4.9 5.0 5.3 5.5 6.2 7.0 7.7 8.0 8.1 8.0 8.4 8.5 8.8 9.2 9.5 10.7 11.1 10.2 10.0 10.6 9.7 8.7 8.6 7.5 7.0 8.5 11.8 15.2 11.9 6.9 5.6 5.0 4.7 4.6 7.6 13.3 20.2 18.9
6.2 5.9 5.7 5.9 6.3 7.7 8.1 8.3 8.5 8.2 8.3 8.9 9.5 9.6 10.1 11.0 10.3 10.9 10.8 11.2 11.2 10.5 10.4 9.9 9.3 9.4 9.8 10.3 10.9 8.6 6.9 6.0 6.1 6.0 6.5 6.0 7.0 7.8